| time (UTC) | temp F | wind direction | speed MPH | gust MPH | rain 1hr in | rain 24hr in | rain mn in | humidity % | barometer mb |
| 20260902031518 | 63 | 60 | 3.0 | 5.0 | 0.00 | 0.00 | 0.00 | 88 | 999.3 |
| 20260902030538 | 63 | 54 | 3.0 | 4.0 | 0.00 | 0.00 | 0.00 | 87 | 999.3 |
| 20260902025518 | 63 | 54 | 3.0 | 5.0 | 0.00 | 0.00 | 0.00 | 88 | 999.5 |
| 20260902024519 | 63 | 59 | 3.0 | 4.0 | 0.00 | 0.00 | 0.00 | 88 | 999.5 |
| 20260902023520 | 63 | 63 | 3.0 | 4.0 | 0.00 | 0.00 | 0.00 | 89 | 999.6 |
| 20260902022519 | 63 | 73 | 1.0 | 4.0 | 0.00 | 0.00 | 0.00 | 90 | 999.7 |
| 20260902021539 | 63 | 53 | 1.0 | 4.0 | 0.00 | 0.00 | 0.00 | 89 | 999.7 |
| 20260902020521 | 64 | 48 | 2.0 | 5.0 | 0.00 | 0.00 | 0.00 | 87 | 999.8 |
| 20260902015517 | 64 | 40 | 3.0 | 6.0 | 0.00 | 0.00 | 0.00 | 87 | 999.9 |
| 20260902014538 | 65 | 31 | 3.0 | 7.0 | 0.00 | 0.00 | 0.00 | 87 | 1000.1 |
| 20260902013518 | 65 | 38 | 3.0 | 7.0 | 0.00 | 0.00 | 0.00 | 85 | 1000.1 |
| 20260902012522 | 65 | 54 | 1.0 | 4.0 | 0.00 | 0.00 | 0.00 | 86 | 1000.2 |
| 20260902011520 | 64 | 38 | 2.0 | 5.0 | 0.00 | 0.00 | 0.00 | 86 | 1000.2 |
| 20260902010517 | 64 | 43 | 3.0 | 6.0 | 0.00 | 0.01 | 0.00 | 86 | 1000.4 |
| 20260902005559 | 64 | 29 | 3.0 | 5.0 | 0.00 | 0.01 | 0.00 | 86 | 1000.6 |
| 20260902004519 | 65 | 26 | 1.0 | 4.0 | 0.00 | 0.01 | 0.00 | 85 | 1000.6 |
| 20260902003518 | 65 | 38 | 2.0 | 5.0 | 0.00 | 0.01 | 0.00 | 84 | 1000.6 |
| 20260902002523 | 65 | 30 | 0.0 | 3.0 | 0.00 | 0.01 | 0.00 | 83 | 1000.7 |
| 20260902001518 | 65 | 20 | 0.0 | 3.0 | 0.00 | 0.01 | 0.00 | 83 | 1000.7 |
| 20260902000540 | 65 | 43 | 1.0 | 4.0 | 0.00 | 0.01 | 0.00 | 82 | 1000.8 |
| 20260901235518 | 65 | 54 | 1.0 | 3.0 | 0.00 | 0.01 | 0.00 | 83 | 1000.9 |
| 20260901234519 | 65 | 77 | 0.0 | 2.0 | 0.00 | 0.01 | 0.00 | 82 | 1001.1 |
| 20260901233538 | 65 | 91 | 0.0 | 2.0 | 0.00 | 0.01 | 0.00 | 83 | 1001.1 |
| 20260901232520 | 65 | 63 | 1.0 | 3.0 | 0.00 | 0.01 | 0.00 | 84 | 1001.2 |
| 20260901231521 | 65 | 45 | 1.0 | 3.0 | 0.00 | 0.01 | 0.00 | 83 | 1001.3 |
| 20260901230539 | 65 | 41 | 2.0 | 4.0 | 0.00 | 0.01 | 0.00 | 83 | 1001.4 |
| 20260901225519 | 65 | 43 | 0.0 | 2.0 | 0.00 | 0.01 | 0.00 | 84 | 1001.6 |
| 20260901224536 | 64 | 45 | 1.0 | 5.0 | 0.00 | 0.01 | 0.00 | 83 | 1001.7 |
| 20260901223538 | 65 | 37 | 1.0 | 4.0 | 0.00 | 0.01 | 0.00 | 83 | 1001.8 |
| 20260901222542 | 65 | 25 | 1.0 | 3.0 | 0.00 | 0.01 | 0.00 | 82 | 1001.9 |
| 20260901221520 | 64 | 29 | 0.0 | 3.0 | 0.00 | 0.01 | 0.00 | 81 | 1002.0 |
| 20260901220620 | 64 | 0.0 | 0.0 | 0.00 | 0.01 | 0.00 | 84 | 1002.1 | |
| 20260901215517 | 63 | 32 | 1.0 | 4.0 | 0.00 | 0.01 | 0.00 | 85 | 1002.2 |
| 20260901214519 | 63 | 23 | 1.0 | 5.0 | 0.00 | 0.01 | 0.00 | 85 | 1002.3 |
| 20260901213519 | 63 | 17 | 1.0 | 3.0 | 0.00 | 0.01 | 0.00 | 85 | 1002.4 |
| 20260901212523 | 63 | 139 | 0.0 | 2.0 | 0.00 | 0.01 | 0.00 | 85 | 1002.5 |
| 20260901211518 | 63 | 108 | 0.0 | 2.0 | 0.00 | 0.01 | 0.00 | 85 | 1002.6 |
| 20260901210518 | 63 | 143 | 0.0 | 2.0 | 0.00 | 0.01 | 0.00 | 87 | 1002.6 |
| 20260901205518 | 63 | 155 | 0.0 | 1.0 | 0.00 | 0.01 | 0.00 | 85 | 1002.7 |
| 20260901204519 | 63 | 22 | 0.0 | 4.0 | 0.00 | 0.01 | 0.00 | 83 | 1002.7 |
| 20260901203519 | 63 | 142 | 0.0 | 2.0 | 0.00 | 0.01 | 0.00 | 84 | 1002.8 |
| 20260901202520 | 63 | 69 | 1.0 | 3.0 | 0.00 | 0.01 | 0.00 | 83 | 1002.9 |
| 20260901201519 | 63 | 142 | 0.0 | 2.0 | 0.00 | 0.01 | 0.00 | 85 | 1003.0 |
| 20260901200519 | 63 | 142 | 1.0 | 3.0 | 0.00 | 0.01 | 0.00 | 84 | 1003.0 |
| 20260901195519 | 62 | 37 | 0.0 | 2.0 | 0.00 | 0.01 | 0.00 | 85 | 1003.1 |
| 20260901194516 | 62 | 15 | 1.0 | 4.0 | 0.00 | 0.01 | 0.00 | 85 | 1003.2 |
| 20260901193518 | 62 | 52 | 1.0 | 4.0 | 0.00 | 0.01 | 0.00 | 87 | 1003.2 |
| 20260901192542 | 61 | 157 | 0.0 | 1.0 | 0.00 | 0.01 | 0.00 | 87 | 1003.3 |
| 20260901191541 | 60 | 94 | 1.0 | 3.0 | 0.00 | 0.01 | 0.00 | 89 | 1003.5 |
| 20260901190517 | 60 | 64 | 3.0 | 5.0 | 0.00 | 0.01 | 0.00 | 87 | 1003.5 |
| 20260901185526 | 59 | 71 | 2.0 | 4.0 | 0.00 | 0.01 | 0.00 | 90 | 1003.6 |
| 20260901184527 | 59 | 54 | 2.0 | 4.0 | 0.00 | 0.01 | 0.00 | 90 | 1003.8 |
| 20260901183527 | 58 | 28 | 2.0 | 4.0 | 0.00 | 0.01 | 0.00 | 92 | 1003.9 |
| 20260901182528 | 58 | 26 | 1.0 | 3.0 | 0.00 | 0.01 | 0.00 | 93 | 1004.0 |
| 20260901181527 | 57 | 28 | 1.0 | 4.0 | 0.00 | 0.01 | 0.00 | 93 | 1004.0 |
| 20260901180527 | 57 | 8 | 2.0 | 3.0 | 0.00 | 0.01 | 0.00 | 94 | 1004.1 |
| 20260901175528 | 56 | 345 | 2.0 | 4.0 | 0.00 | 0.01 | 0.00 | 95 | 1004.3 |
| 20260901174551 | 55 | 3 | 2.0 | 4.0 | 0.00 | 0.01 | 0.00 | 96 | 1004.3 |
| 20260901173548 | 55 | 11 | 3.0 | 5.0 | 0.00 | 0.01 | 0.00 | 96 | 1004.3 |
| 20260901172519 | 54 | 15 | 2.0 | 6.0 | 0.00 | 0.01 | 0.00 | 96 | 1004.5 |
| 20260901171528 | 54 | 19 | 1.0 | 3.0 | 0.00 | 0.01 | 0.00 | 96 | 1004.5 |
| 20260901170529 | 54 | 18 | 1.0 | 3.0 | 0.00 | 0.01 | 0.00 | 96 | 1004.5 |
| 20260901165550 | 54 | 29 | 1.0 | 3.0 | 0.00 | 0.01 | 0.00 | 96 | 1004.6 |
| 20260901164528 | 54 | 22 | 1.0 | 2.0 | 0.00 | 0.01 | 0.00 | 96 | 1004.6 |
| 20260901163529 | 53 | 8 | 0.0 | 1.0 | 0.00 | 0.01 | 0.00 | 95 | 1004.6 |
| 20260901162529 | 53 | 0.0 | 0.0 | 0.00 | 0.01 | 0.00 | 95 | 1004.6 | |
| 20260901161529 | 53 | 49 | 1.0 | 3.0 | 0.00 | 0.01 | 0.00 | 95 | 1004.7 |
| 20260901160529 | 52 | 0.0 | 0.0 | 0.00 | 0.01 | 0.00 | 95 | 1004.8 | |
| 20260901155529 | 52 | 38 | 0.0 | 2.0 | 0.00 | 0.01 | 0.00 | 95 | 1004.8 |
| 20260901154532 | 52 | 38 | 1.0 | 3.0 | 0.00 | 0.01 | 0.00 | 95 | 1004.9 |
| 20260901153529 | 52 | 0.0 | 0.0 | 0.00 | 0.01 | 0.00 | 95 | 1005.0 | |
| 20260901152531 | 51 | 0.0 | 0.0 | 0.00 | 0.02 | 0.00 | 95 | 1005.1 | |
| 20260901151530 | 51 | 307 | 0.0 | 0.0 | 0.00 | 0.02 | 0.00 | 95 | 1005.1 |
| 20260901150530 | 51 | 0.0 | 0.0 | 0.00 | 0.02 | 0.00 | 95 | 1005.1 | |
| 20260901145550 | 51 | 269 | 0.0 | 0.0 | 0.00 | 0.03 | 0.00 | 95 | 1005.1 |
| 20260901144531 | 51 | 271 | 0.0 | 1.0 | 0.00 | 0.03 | 0.00 | 95 | 1005.1 |
| 20260901143531 | 51 | 298 | 1.0 | 2.0 | 0.00 | 0.03 | 0.00 | 95 | 1005.1 |
| 20260901142531 | 50 | 237 | 0.0 | 1.0 | 0.00 | 0.03 | 0.00 | 95 | 1005.1 |
| 20260901141516 | 50 | 260 | 1.0 | 1.0 | 0.00 | 0.04 | 0.00 | 95 | 1005.0 |
| 20260901140517 | 50 | 291 | 0.0 | 1.0 | 0.00 | 0.04 | 0.00 | 95 | 1004.9 |
| 20260901135531 | 50 | 298 | 1.0 | 2.0 | 0.00 | 0.05 | 0.00 | 95 | 1004.9 |
| 20260901134533 | 50 | 318 | 1.0 | 2.0 | 0.00 | 0.05 | 0.00 | 95 | 1005.1 |
| 20260901133532 | 50 | 329 | 1.0 | 2.0 | 0.00 | 0.06 | 0.00 | 95 | 1005.1 |
| 20260901132533 | 50 | 339 | 0.0 | 0.0 | 0.00 | 0.07 | 0.00 | 95 | 1005.2 |
| 20260901131520 | 50 | 321 | 1.0 | 2.0 | 0.00 | 0.07 | 0.00 | 95 | 1005.2 |
| 20260901130519 | 50 | 323 | 1.0 | 2.0 | 0.00 | 0.07 | 0.00 | 95 | 1005.2 |
| 20260901125518 | 50 | 323 | 0.0 | 2.0 | 0.00 | 0.07 | 0.00 | 95 | 1005.3 |
| 20260901124518 | 50 | 318 | 2.0 | 2.0 | 0.00 | 0.07 | 0.00 | 95 | 1005.2 |
| 20260901123538 | 50 | 333 | 2.0 | 2.0 | 0.00 | 0.07 | 0.00 | 95 | 1005.2 |
| 20260901122538 | 50 | 331 | 2.0 | 2.0 | 0.00 | 0.07 | 0.00 | 95 | 1005.3 |
| 20260901121517 | 50 | 335 | 2.0 | 3.0 | 0.00 | 0.07 | 0.00 | 95 | 1005.4 |
| 20260901120517 | 51 | 356 | 1.0 | 2.0 | 0.00 | 0.07 | 0.00 | 95 | 1005.4 |
| 20260901115517 | 51 | 353 | 2.0 | 2.0 | 0.00 | 0.07 | 0.00 | 95 | 1005.5 |
| 20260901114519 | 51 | 330 | 2.0 | 2.0 | 0.00 | 0.07 | 0.00 | 95 | 1005.5 |
| 20260901113519 | 52 | 303 | 1.0 | 2.0 | 0.00 | 0.07 | 0.00 | 95 | 1005.5 |
| 20260901112540 | 52 | 259 | 1.0 | 2.0 | 0.00 | 0.07 | 0.00 | 95 | 1005.6 |
| 20260901111520 | 52 | 256 | 1.0 | 2.0 | 0.00 | 0.07 | 0.00 | 95 | 1005.6 |
| 20260901110520 | 52 | 315 | 1.0 | 2.0 | 0.00 | 0.07 | 0.00 | 95 | 1005.6 |
| 20260901105518 | 52 | 322 | 1.0 | 2.0 | 0.00 | 0.07 | 0.00 | 95 | 1005.6 |
| 20260901104520 | 52 | 0.0 | 0.0 | 0.00 | 0.07 | 0.00 | 95 | 1005.5 | |
| 20260901103519 | 52 | 0.0 | 0.0 | 0.00 | 0.07 | 0.00 | 95 | 1005.5 | |
| 20260901102559 | 52 | 0.0 | 0.0 | 0.00 | 0.07 | 0.00 | 95 | 1005.5 | |
| 20260901101520 | 53 | 0.0 | 0.0 | 0.00 | 0.07 | 0.00 | 95 | 1005.5 | |
| 20260901100542 | 53 | 0.0 | 0.0 | 0.00 | 0.07 | 0.00 | 95 | 1005.5 | |
| 20260901095519 | 53 | 2 | 1.0 | 2.0 | 0.00 | 0.07 | 0.00 | 95 | 1005.5 |
| 20260901094539 | 53 | 354 | 1.0 | 2.0 | 0.00 | 0.07 | 0.00 | 95 | 1005.6 |
| 20260901093519 | 54 | 359 | 1.0 | 2.0 | 0.00 | 0.07 | 0.00 | 95 | 1005.6 |
| 20260901092520 | 54 | 0 | 2.0 | 4.0 | 0.00 | 0.07 | 0.00 | 95 | 1005.7 |
| 20260901091520 | 54 | 1 | 1.0 | 3.0 | 0.00 | 0.07 | 0.00 | 95 | 1005.7 |
| 20260901090520 | 54 | 358 | 1.0 | 4.0 | 0.00 | 0.07 | 0.00 | 95 | 1005.8 |
| 20260901085519 | 54 | 10 | 1.0 | 3.0 | 0.00 | 0.07 | 0.00 | 95 | 1006.0 |
| 20260901084536 | 54 | 359 | 0.0 | 0.0 | 0.00 | 0.07 | 0.00 | 95 | 1006.0 |
| 20260901083518 | 54 | 14 | 1.0 | 3.0 | 0.00 | 0.07 | 0.00 | 95 | 1006.2 |
| 20260901082521 | 54 | 357 | 1.0 | 3.0 | 0.00 | 0.07 | 0.00 | 95 | 1006.3 |
| 20260901081540 | 54 | 348 | 2.0 | 4.0 | 0.00 | 0.07 | 0.00 | 95 | 1006.3 |
| 20260901080521 | 54 | 13 | 1.0 | 3.0 | 0.00 | 0.07 | 0.00 | 95 | 1006.3 |
| 20260901075537 | 54 | 4 | 2.0 | 3.0 | 0.00 | 0.07 | 0.00 | 95 | 1006.4 |
| 20260901074517 | 54 | 10 | 1.0 | 3.0 | 0.00 | 0.07 | 0.00 | 95 | 1006.5 |
| 20260901073519 | 54 | 0.0 | 0.0 | 0.00 | 0.07 | 0.00 | 95 | 1006.6 | |
| 20260901072522 | 54 | 0.0 | 0.0 | 0.00 | 0.07 | 0.00 | 95 | 1006.7 | |
| 20260901071519 | 54 | 345 | 0.0 | 2.0 | 0.00 | 0.07 | 0.00 | 95 | 1006.8 |
| 20260901070518 | 54 | 0.0 | 0.0 | 0.00 | 0.07 | 0.00 | 95 | 1006.8 | |
| 20260901065520 | 55 | 358 | 0.0 | 2.0 | 0.00 | 0.07 | 0.07 | 95 | 1006.9 |
| 20260901064539 | 55 | 354 | 1.0 | 3.0 | 0.00 | 0.07 | 0.07 | 95 | 1007.1 |
| 20260901063519 | 55 | 8 | 1.0 | 4.0 | 0.00 | 0.07 | 0.07 | 95 | 1007.4 |
| 20260901062519 | 55 | 6 | 1.0 | 3.0 | 0.00 | 0.07 | 0.07 | 95 | 1007.8 |
| 20260901061519 | 55 | 8 | 0.0 | 3.0 | 0.00 | 0.07 | 0.07 | 95 | 1007.9 |
| 20260901060541 | 55 | 0.0 | 0.0 | 0.00 | 0.07 | 0.07 | 95 | 1008.0 | |
| 20260901055519 | 55 | 358 | 0.0 | 2.0 | 0.00 | 0.07 | 0.07 | 95 | 1007.9 |
| 20260901054518 | 56 | 347 | 0.0 | 2.0 | 0.00 | 0.07 | 0.07 | 95 | 1007.9 |
| 20260901053516 | 56 | 2 | 3.0 | 5.0 | 0.00 | 0.07 | 0.07 | 95 | 1007.8 |
| 20260901052520 | 56 | 4 | 4.0 | 5.0 | 0.00 | 0.07 | 0.07 | 95 | 1008.1 |
| 20260901051540 | 56 | 346 | 1.0 | 4.0 | 0.00 | 0.07 | 0.07 | 95 | 1008.2 |
| 20260901050517 | 56 | 8 | 4.0 | 6.0 | 0.00 | 0.07 | 0.07 | 95 | 1008.4 |
| 20260901045518 | 56 | 0 | 4.0 | 5.0 | 0.00 | 0.07 | 0.07 | 95 | 1008.5 |
| 20260901044519 | 56 | 348 | 3.0 | 3.0 | 0.00 | 0.07 | 0.07 | 95 | 1008.7 |
| 20260901043518 | 56 | 354 | 3.0 | 4.0 | 0.00 | 0.07 | 0.07 | 95 | 1008.8 |
| 20260901042520 | 56 | 326 | 2.0 | 2.0 | 0.00 | 0.07 | 0.07 | 95 | 1008.9 |
| 20260901041518 | 56 | 358 | 3.0 | 4.0 | 0.00 | 0.07 | 0.07 | 95 | 1009.0 |
| 20260901040518 | 57 | 353 | 3.0 | 3.0 | 0.00 | 0.07 | 0.07 | 95 | 1009.2 |
| 20260901035518 | 57 | 358 | 3.0 | 3.0 | 0.00 | 0.07 | 0.07 | 95 | 1009.3 |
| 20260901034518 | 56 | 344 | 2.0 | 3.0 | 0.00 | 0.07 | 0.07 | 95 | 1009.3 |
| 20260901033520 | 57 | 334 | 2.0 | 2.0 | 0.00 | 0.07 | 0.07 | 95 | 1009.2 |
| 20260901032519 | 57 | 344 | 2.0 | 3.0 | 0.00 | 0.07 | 0.07 | 95 | 1009.3 |